Year,Month,Day,Hour,Minute,Value (Times are PST for temperature in C)
2008,03,09,00,00,5.60
2008,03,09,00,01,5.60
2008,03,09,00,02,5.60
2008,03,09,00,03,5.60
2008,03,09,00,04,5.60
2008,03,09,00,05,5.60
2008,03,09,00,06,5.60
2008,03,09,00,07,5.70
2008,03,09,00,08,5.70
2008,03,09,00,09,5.70
2008,03,09,00,10,5.70
2008,03,09,00,11,5.70
2008,03,09,00,12,5.80
2008,03,09,00,13,5.80
2008,03,09,00,14,5.80
2008,03,09,00,15,5.80
2008,03,09,00,16,5.80
2008,03,09,00,17,5.80
2008,03,09,00,18,5.80
2008,03,09,00,19,5.80
2008,03,09,00,20,5.80
2008,03,09,00,21,5.80
2008,03,09,00,22,5.80
2008,03,09,00,23,5.80
2008,03,09,00,24,5.80
2008,03,09,00,25,5.80
2008,03,09,00,26,5.80
2008,03,09,00,27,5.70
2008,03,09,00,28,5.70
2008,03,09,00,29,5.70
2008,03,09,00,30,5.70
2008,03,09,00,31,5.60
2008,03,09,00,32,5.60
2008,03,09,00,33,5.60
2008,03,09,00,34,5.50
2008,03,09,00,35,5.50
2008,03,09,00,36,5.40
2008,03,09,00,37,5.30
2008,03,09,00,38,5.30
2008,03,09,00,39,5.30
2008,03,09,00,40,5.30
2008,03,09,00,41,5.20
2008,03,09,00,42,5.30
2008,03,09,00,43,5.30
2008,03,09,00,44,5.30
2008,03,09,00,45,5.30
2008,03,09,00,46,5.30
2008,03,09,00,47,5.30
2008,03,09,00,48,5.40
2008,03,09,00,49,5.40
2008,03,09,00,50,5.40
2008,03,09,00,51,5.40
2008,03,09,00,52,5.50
2008,03,09,00,53,5.50
2008,03,09,00,54,5.50
2008,03,09,00,55,5.60
2008,03,09,00,56,5.60
2008,03,09,00,57,5.60
2008,03,09,00,58,5.60
2008,03,09,00,59,5.60
2008,03,09,01,00,5.60
2008,03,09,01,01,5.60
2008,03,09,01,02,5.60
2008,03,09,01,03,5.70
2008,03,09,01,04,5.70
2008,03,09,01,05,5.70
2008,03,09,01,06,5.70
2008,03,09,01,07,5.70
2008,03,09,01,08,5.70
2008,03,09,01,09,5.70
2008,03,09,01,10,5.70
2008,03,09,01,11,5.70
2008,03,09,01,12,5.70
2008,03,09,01,13,5.70
2008,03,09,01,14,5.70
2008,03,09,01,15,5.70
2008,03,09,01,16,5.70
2008,03,09,01,17,5.70
2008,03,09,01,18,5.80
2008,03,09,01,19,5.80
2008,03,09,01,20,5.80
2008,03,09,01,21,5.80
2008,03,09,01,22,5.80
2008,03,09,01,23,5.70
2008,03,09,01,24,5.70
2008,03,09,01,25,5.70
2008,03,09,01,26,5.70
2008,03,09,01,27,5.70
2008,03,09,01,28,5.70
2008,03,09,01,29,5.70
2008,03,09,01,30,5.70
2008,03,09,01,31,5.70
2008,03,09,01,32,5.70
2008,03,09,01,33,5.70
2008,03,09,01,34,5.70
2008,03,09,01,35,5.70
2008,03,09,01,36,5.70
2008,03,09,01,37,5.70
2008,03,09,01,38,5.70
2008,03,09,01,39,5.70
2008,03,09,01,40,5.70
2008,03,09,01,41,5.80
2008,03,09,01,42,5.80
2008,03,09,01,43,5.80
2008,03,09,01,44,5.90
2008,03,09,01,45,5.90
2008,03,09,01,46,5.90
2008,03,09,01,47,6.00
2008,03,09,01,48,6.00
2008,03,09,01,49,6.00
2008,03,09,01,50,6.10
2008,03,09,01,51,6.10
2008,03,09,01,52,6.10
2008,03,09,01,53,6.10
2008,03,09,01,54,6.20
2008,03,09,01,55,6.20
2008,03,09,01,56,6.20
2008,03,09,01,57,6.20
2008,03,09,01,58,6.20
2008,03,09,01,59,6.30
2008,03,09,03,00,6.30
2008,03,09,03,01,6.30
2008,03,09,03,02,6.30
2008,03,09,03,03,6.30
2008,03,09,03,04,6.30
2008,03,09,03,05,6.30
2008,03,09,03,06,6.30
2008,03,09,03,07,6.30
2008,03,09,03,08,6.30
2008,03,09,03,09,6.30
2008,03,09,03,10,6.30
2008,03,09,03,11,6.30
2008,03,09,03,12,6.30
2008,03,09,03,13,6.30
2008,03,09,03,14,6.30
2008,03,09,03,15,6.20
2008,03,09,03,16,6.20
2008,03,09,03,17,6.20
2008,03,09,03,18,6.30
2008,03,09,03,19,6.30
2008,03,09,03,20,6.30
2008,03,09,03,21,6.30
2008,03,09,03,22,6.30
2008,03,09,03,23,6.30
2008,03,09,03,24,6.30
2008,03,09,03,25,6.30
2008,03,09,03,26,6.30
2008,03,09,03,27,6.40
2008,03,09,03,28,6.40
2008,03,09,03,29,6.40
2008,03,09,03,30,6.40
2008,03,09,03,31,6.40
2008,03,09,03,32,6.50
2008,03,09,03,33,6.50
2008,03,09,03,34,6.60
2008,03,09,03,35,6.60
2008,03,09,03,36,6.60
2008,03,09,03,37,6.70
2008,03,09,03,38,6.70
2008,03,09,03,39,6.70
2008,03,09,03,40,6.70
2008,03,09,03,41,6.70
2008,03,09,03,42,6.70
2008,03,09,03,43,6.70
2008,03,09,03,44,6.70
2008,03,09,03,45,6.70
2008,03,09,03,46,6.70
2008,03,09,03,47,6.70
2008,03,09,03,48,6.70
2008,03,09,03,49,6.70
2008,03,09,03,50,6.70
2008,03,09,03,51,6.70
2008,03,09,03,52,6.70
2008,03,09,03,53,6.70
2008,03,09,03,54,6.70
2008,03,09,03,55,6.70
2008,03,09,03,56,6.70
2008,03,09,03,57,6.70
2008,03,09,03,58,6.70
2008,03,09,03,59,6.70
2008,03,09,04,00,6.70
2008,03,09,04,01,6.70
2008,03,09,04,02,6.70
2008,03,09,04,03,6.70
2008,03,09,04,04,6.60
2008,03,09,04,05,6.60
2008,03,09,04,06,6.60
2008,03,09,04,07,6.60
2008,03,09,04,08,6.60
2008,03,09,04,09,6.60
2008,03,09,04,10,6.60
2008,03,09,04,11,6.60
2008,03,09,04,12,6.60
2008,03,09,04,13,6.60
2008,03,09,04,14,6.60
2008,03,09,04,15,6.60
2008,03,09,04,16,6.60
2008,03,09,04,17,6.60
2008,03,09,04,18,6.50
2008,03,09,04,19,6.50
2008,03,09,04,20,6.50
2008,03,09,04,21,6.50
2008,03,09,04,22,6.50
2008,03,09,04,23,6.50
2008,03,09,04,24,6.50
2008,03,09,04,25,6.50
2008,03,09,04,26,6.50
2008,03,09,04,27,6.40
2008,03,09,04,28,6.50
2008,03,09,04,29,6.40
2008,03,09,04,30,6.40
2008,03,09,04,31,6.40
2008,03,09,04,32,6.50
2008,03,09,04,33,6.50
2008,03,09,04,34,6.50
2008,03,09,04,35,6.50
2008,03,09,04,36,6.60
2008,03,09,04,37,6.60
2008,03,09,04,38,6.70
2008,03,09,04,39,6.70
2008,03,09,04,40,6.70
2008,03,09,04,41,6.70
2008,03,09,04,42,6.80
2008,03,09,04,43,6.80
2008,03,09,04,44,6.80
2008,03,09,04,45,6.80
2008,03,09,04,46,6.90
2008,03,09,04,47,6.90
2008,03,09,04,48,6.90
2008,03,09,04,49,6.90
2008,03,09,04,50,6.90
2008,03,09,04,51,6.90
2008,03,09,04,52,6.90
2008,03,09,04,53,6.90
2008,03,09,04,54,6.90
2008,03,09,04,55,7.00
2008,03,09,04,56,7.00
2008,03,09,04,57,7.00
2008,03,09,04,58,7.00
2008,03,09,04,59,7.00
2008,03,09,05,00,7.00
2008,03,09,05,01,7.00
2008,03,09,05,02,7.00
2008,03,09,05,03,7.00
2008,03,09,05,04,7.00
2008,03,09,05,05,7.00
2008,03,09,05,06,7.10
2008,03,09,05,07,7.10
2008,03,09,05,08,7.10
2008,03,09,05,09,7.10
2008,03,09,05,10,7.10
2008,03,09,05,11,7.10
2008,03,09,05,12,7.20
2008,03,09,05,13,7.20
2008,03,09,05,14,7.20
2008,03,09,05,15,7.20
2008,03,09,05,16,7.20
2008,03,09,05,17,7.20
2008,03,09,05,18,7.20
2008,03,09,05,19,7.20
2008,03,09,05,20,7.20
2008,03,09,05,21,7.20
2008,03,09,05,22,7.20
2008,03,09,05,23,7.20
2008,03,09,05,24,7.20
2008,03,09,05,25,7.20
2008,03,09,05,26,7.20
2008,03,09,05,27,7.20
2008,03,09,05,28,7.20
2008,03,09,05,29,7.20
2008,03,09,05,30,7.20
2008,03,09,05,31,7.20
2008,03,09,05,32,7.20
2008,03,09,05,33,7.20
2008,03,09,05,34,7.20
2008,03,09,05,35,7.20
2008,03,09,05,36,7.20
2008,03,09,05,37,7.20
2008,03,09,05,38,7.30
2008,03,09,05,39,7.30
2008,03,09,05,40,7.30
2008,03,09,05,41,7.30
2008,03,09,05,42,7.30
2008,03,09,05,43,7.30
2008,03,09,05,44,7.30
2008,03,09,05,45,7.30
2008,03,09,05,46,7.30
2008,03,09,05,47,7.30
2008,03,09,05,48,7.30
2008,03,09,05,49,7.30
2008,03,09,05,50,7.40
2008,03,09,05,51,7.40
2008,03,09,05,52,7.40
2008,03,09,05,53,7.40
2008,03,09,05,54,7.40
2008,03,09,05,55,7.40
2008,03,09,05,56,7.40
2008,03,09,05,57,7.40
2008,03,09,05,58,7.40
2008,03,09,05,59,7.40
2008,03,09,06,00,7.40
2008,03,09,06,01,7.40
2008,03,09,06,02,7.30
2008,03,09,06,03,7.30
2008,03,09,06,04,7.30
2008,03,09,06,05,7.30
2008,03,09,06,06,7.30
2008,03,09,06,07,7.30
2008,03,09,06,08,7.30
2008,03,09,06,09,7.30
2008,03,09,06,10,7.30
2008,03,09,06,11,7.30
2008,03,09,06,12,7.30
2008,03,09,06,13,7.30
2008,03,09,06,14,7.30
2008,03,09,06,15,7.30
2008,03,09,06,16,7.30
2008,03,09,06,17,7.20
2008,03,09,06,18,7.20
2008,03,09,06,19,7.20
2008,03,09,06,20,7.20
2008,03,09,06,21,7.20
2008,03,09,06,22,7.20
2008,03,09,06,23,7.20
2008,03,09,06,24,7.20
2008,03,09,06,25,7.20
2008,03,09,06,26,7.20
2008,03,09,06,27,7.20
2008,03,09,06,28,7.20
2008,03,09,06,29,7.20
2008,03,09,06,30,7.20
2008,03,09,06,31,7.20
2008,03,09,06,32,7.20
2008,03,09,06,33,7.20
2008,03,09,06,34,7.20
2008,03,09,06,35,7.20
2008,03,09,06,36,7.20
2008,03,09,06,37,7.20
2008,03,09,06,38,7.20
2008,03,09,06,39,7.20
2008,03,09,06,40,7.20
2008,03,09,06,41,7.20
2008,03,09,06,42,7.20
2008,03,09,06,43,7.20
2008,03,09,06,44,7.20
2008,03,09,06,45,7.20
2008,03,09,06,46,7.20
2008,03,09,06,47,7.20
2008,03,09,06,48,7.20
2008,03,09,06,49,7.20
2008,03,09,06,50,7.20
2008,03,09,06,51,7.20
2008,03,09,06,52,7.20
2008,03,09,06,53,7.20
2008,03,09,06,54,7.20
2008,03,09,06,55,7.20
2008,03,09,06,56,7.20
2008,03,09,06,57,7.20
2008,03,09,06,58,7.20
2008,03,09,06,59,7.20
2008,03,09,07,00,7.20
2008,03,09,07,01,7.20
2008,03,09,07,02,7.20
2008,03,09,07,03,7.20
2008,03,09,07,04,7.20
2008,03,09,07,05,7.20
2008,03,09,07,06,7.20
2008,03,09,07,07,7.20
2008,03,09,07,08,7.20
2008,03,09,07,09,7.20
2008,03,09,07,10,7.20
2008,03,09,07,11,7.20
2008,03,09,07,12,7.20
2008,03,09,07,13,7.30
2008,03,09,07,14,7.30
2008,03,09,07,15,7.30
2008,03,09,07,16,7.20
2008,03,09,07,17,7.20
2008,03,09,07,18,7.20
2008,03,09,07,19,7.20
2008,03,09,07,20,7.20
2008,03,09,07,21,7.20
2008,03,09,07,22,7.20
2008,03,09,07,23,7.20
2008,03,09,07,24,7.20
2008,03,09,07,25,7.20
2008,03,09,07,26,7.20
2008,03,09,07,27,7.20
2008,03,09,07,28,7.20
2008,03,09,07,29,7.20
2008,03,09,07,30,7.20
2008,03,09,07,31,7.20
2008,03,09,07,32,7.20
2008,03,09,07,33,7.20
2008,03,09,07,34,7.10
2008,03,09,07,35,7.10
2008,03,09,07,36,7.10
2008,03,09,07,37,7.10
2008,03,09,07,38,7.10
2008,03,09,07,39,7.10
2008,03,09,07,40,7.10
2008,03,09,07,41,7.10
2008,03,09,07,42,7.10
2008,03,09,07,43,7.10
2008,03,09,07,44,7.10
2008,03,09,07,45,7.10
2008,03,09,07,46,7.10
2008,03,09,07,47,7.10
2008,03,09,07,48,7.10
2008,03,09,07,49,7.10
2008,03,09,07,50,7.10
2008,03,09,07,51,7.10
2008,03,09,07,52,7.10
2008,03,09,07,53,7.10
2008,03,09,07,54,7.10
2008,03,09,07,55,7.10
2008,03,09,07,56,7.10
2008,03,09,07,57,7.00
2008,03,09,07,58,7.00
2008,03,09,07,59,7.00
2008,03,09,08,00,7.00
2008,03,09,08,01,7.00
2008,03,09,08,02,7.00
2008,03,09,08,03,7.00
2008,03,09,08,04,7.00
2008,03,09,08,05,7.00
2008,03,09,08,06,7.00
2008,03,09,08,07,7.00
2008,03,09,08,08,7.00
2008,03,09,08,09,7.00
2008,03,09,08,10,7.00
2008,03,09,08,11,7.00
2008,03,09,08,12,7.00
2008,03,09,08,13,7.00
2008,03,09,08,14,7.00
2008,03,09,08,15,7.00
2008,03,09,08,16,7.00
2008,03,09,08,17,7.00
2008,03,09,08,18,7.00
2008,03,09,08,19,7.00
2008,03,09,08,20,7.00
2008,03,09,08,21,7.10
2008,03,09,08,22,7.10
2008,03,09,08,23,7.10
2008,03,09,08,24,7.10
2008,03,09,08,25,7.10
2008,03,09,08,26,7.10
2008,03,09,08,27,7.10
2008,03,09,08,28,7.10
2008,03,09,08,29,7.10
2008,03,09,08,30,7.10
2008,03,09,08,31,7.10
2008,03,09,08,32,7.10
2008,03,09,08,33,7.10
2008,03,09,08,34,7.10
2008,03,09,08,35,7.10
2008,03,09,08,36,7.10
2008,03,09,08,37,7.10
2008,03,09,08,38,7.10
2008,03,09,08,39,7.10
2008,03,09,08,40,7.10
2008,03,09,08,41,7.10
2008,03,09,08,42,7.10
2008,03,09,08,43,7.10
2008,03,09,08,44,7.10
2008,03,09,08,45,7.10
2008,03,09,08,46,7.10
2008,03,09,08,47,7.10
2008,03,09,08,48,7.10
2008,03,09,08,49,7.10
2008,03,09,08,50,7.10
2008,03,09,08,51,7.10
2008,03,09,08,52,7.10
2008,03,09,08,53,7.10
2008,03,09,08,54,7.10
2008,03,09,08,55,7.10
2008,03,09,08,56,7.10
2008,03,09,08,57,7.10
2008,03,09,08,58,7.10
2008,03,09,08,59,7.10
2008,03,09,09,00,7.10
2008,03,09,09,01,7.10
2008,03,09,09,02,7.10
2008,03,09,09,03,7.10
2008,03,09,09,04,7.10
2008,03,09,09,05,7.10
2008,03,09,09,06,7.10
2008,03,09,09,07,7.10
2008,03,09,09,08,7.10
2008,03,09,09,09,7.10
2008,03,09,09,10,7.10
2008,03,09,09,11,7.10
2008,03,09,09,12,7.10
2008,03,09,09,13,7.10
2008,03,09,09,14,7.10
2008,03,09,09,15,7.10
2008,03,09,09,16,7.10
2008,03,09,09,17,7.10
2008,03,09,09,18,7.10
2008,03,09,09,19,7.20
2008,03,09,09,20,7.20
2008,03,09,09,21,7.20
2008,03,09,09,22,7.20
2008,03,09,09,23,7.20
2008,03,09,09,24,7.20
2008,03,09,09,25,7.20
2008,03,09,09,26,7.20
2008,03,09,09,27,7.20
2008,03,09,09,28,7.20
2008,03,09,09,29,7.20
2008,03,09,09,30,7.20
2008,03,09,09,31,7.20
2008,03,09,09,32,7.20
2008,03,09,09,33,7.20
2008,03,09,09,34,7.30
2008,03,09,09,35,7.30
2008,03,09,09,36,7.30
2008,03,09,09,37,7.30
2008,03,09,09,38,7.30
2008,03,09,09,39,7.30
2008,03,09,09,40,7.30
2008,03,09,09,41,7.30
2008,03,09,09,42,7.30
2008,03,09,09,43,7.30
2008,03,09,09,44,7.30
2008,03,09,09,45,7.40
2008,03,09,09,46,7.40
2008,03,09,09,47,7.40
2008,03,09,09,48,7.40
2008,03,09,09,49,7.40
2008,03,09,09,50,7.40
2008,03,09,09,51,7.40
2008,03,09,09,52,7.40
2008,03,09,09,53,7.40
2008,03,09,09,54,7.50
2008,03,09,09,55,7.50
2008,03,09,09,56,7.50
2008,03,09,09,57,7.50
2008,03,09,09,58,7.50
2008,03,09,09,59,7.50
2008,03,09,10,00,7.50
2008,03,09,10,01,7.50
2008,03,09,10,02,7.50
2008,03,09,10,03,7.60
2008,03,09,10,04,7.60
2008,03,09,10,05,7.60
2008,03,09,10,06,7.60
2008,03,09,10,07,7.60
2008,03,09,10,08,7.60
2008,03,09,10,09,7.60
2008,03,09,10,10,7.60
2008,03,09,10,11,7.70
2008,03,09,10,12,7.70
2008,03,09,10,13,7.70
2008,03,09,10,14,7.70
2008,03,09,10,15,7.70
2008,03,09,10,16,7.70
2008,03,09,10,17,7.70
2008,03,09,10,18,7.70
2008,03,09,10,19,7.70
2008,03,09,10,20,7.70
2008,03,09,10,21,7.70
2008,03,09,10,22,7.80
2008,03,09,10,23,7.80
2008,03,09,10,24,7.80
2008,03,09,10,25,7.80
2008,03,09,10,26,7.80
2008,03,09,10,27,7.80
2008,03,09,10,28,7.80
2008,03,09,10,29,7.80
2008,03,09,10,30,7.80
2008,03,09,10,31,7.90
2008,03,09,10,32,7.90
2008,03,09,10,33,7.90
2008,03,09,10,34,7.90
2008,03,09,10,35,8.00
2008,03,09,10,36,8.00
2008,03,09,10,37,8.10
2008,03,09,10,38,8.10
2008,03,09,10,39,8.10
2008,03,09,10,40,8.10
2008,03,09,10,41,8.20
2008,03,09,10,42,8.20
2008,03,09,10,43,8.20
2008,03,09,10,44,8.30
2008,03,09,10,45,8.30
2008,03,09,10,46,8.30
2008,03,09,10,47,8.30
2008,03,09,10,48,8.30
2008,03,09,10,49,8.40
2008,03,09,10,50,8.40
2008,03,09,10,51,8.40
2008,03,09,10,52,8.50
2008,03,09,10,53,8.50
2008,03,09,10,54,8.60
2008,03,09,10,55,8.60
2008,03,09,10,56,8.70
2008,03,09,10,57,8.70
2008,03,09,10,58,8.80
2008,03,09,10,59,8.80
2008,03,09,11,00,8.80
2008,03,09,11,01,8.90
2008,03,09,11,02,8.90
2008,03,09,11,03,8.90
2008,03,09,11,04,8.90
2008,03,09,11,05,9.00
2008,03,09,11,06,9.00
2008,03,09,11,07,9.00
2008,03,09,11,08,9.00
2008,03,09,11,09,9.00
2008,03,09,11,10,8.90
2008,03,09,11,11,8.90
2008,03,09,11,12,8.90
2008,03,09,11,13,8.90
2008,03,09,11,14,8.80
2008,03,09,11,15,8.80
2008,03,09,11,16,8.70
2008,03,09,11,17,8.70
2008,03,09,11,18,8.70
2008,03,09,11,19,8.70
2008,03,09,11,20,8.70
2008,03,09,11,21,8.70
2008,03,09,11,22,8.70
2008,03,09,11,23,8.70
2008,03,09,11,24,8.70
2008,03,09,11,25,8.70
2008,03,09,11,26,8.70
2008,03,09,11,27,8.80
2008,03,09,11,28,8.80
2008,03,09,11,29,8.80
2008,03,09,11,30,8.80
2008,03,09,11,31,8.80
2008,03,09,11,32,8.80
2008,03,09,11,33,8.80
2008,03,09,11,34,8.80
2008,03,09,11,35,8.80
2008,03,09,11,36,8.80
2008,03,09,11,37,8.80
2008,03,09,11,38,8.80
2008,03,09,11,39,8.80
2008,03,09,11,40,8.80
2008,03,09,11,41,8.80
2008,03,09,11,42,8.80
2008,03,09,11,43,8.80
2008,03,09,11,44,8.80
2008,03,09,11,45,8.80
2008,03,09,11,46,8.80
2008,03,09,11,47,8.80
2008,03,09,11,48,8.90
2008,03,09,11,49,8.90
2008,03,09,11,50,8.90
2008,03,09,11,51,8.90
2008,03,09,11,52,8.90
2008,03,09,11,53,8.90
2008,03,09,11,54,8.90
2008,03,09,11,55,9.00
2008,03,09,11,56,9.00
2008,03,09,11,57,9.00
2008,03,09,11,58,9.10
2008,03,09,11,59,9.10
2008,03,09,12,00,9.10
2008,03,09,12,01,9.20
2008,03,09,12,02,9.20
2008,03,09,12,03,9.30
2008,03,09,12,04,9.30
2008,03,09,12,05,9.40
2008,03,09,12,06,9.50
2008,03,09,12,07,9.50
2008,03,09,12,08,9.60
2008,03,09,12,09,9.60
2008,03,09,12,10,9.60
2008,03,09,12,11,9.70
2008,03,09,12,12,9.80
2008,03,09,12,13,9.90
2008,03,09,12,14,10.00
2008,03,09,12,15,10.10
2008,03,09,12,16,10.20
2008,03,09,12,17,10.30
2008,03,09,12,18,10.40
2008,03,09,12,19,10.40
2008,03,09,12,20,10.50
2008,03,09,12,21,10.50
2008,03,09,12,22,10.60
2008,03,09,12,23,10.60
2008,03,09,12,24,10.70
2008,03,09,12,25,10.70
2008,03,09,12,26,10.70
2008,03,09,12,27,10.70
2008,03,09,12,28,10.70
2008,03,09,12,29,10.80
2008,03,09,12,30,10.80
2008,03,09,12,31,10.70
2008,03,09,12,32,10.60
2008,03,09,12,33,10.50
2008,03,09,12,34,10.40
2008,03,09,12,35,10.40
2008,03,09,12,36,10.30
2008,03,09,12,37,10.30
2008,03,09,12,38,10.30
2008,03,09,12,39,10.30
2008,03,09,12,40,10.30
2008,03,09,12,41,10.30
2008,03,09,12,42,10.20
2008,03,09,12,43,10.20
2008,03,09,12,44,10.10
2008,03,09,12,45,10.10
2008,03,09,12,46,10.00
2008,03,09,12,47,10.00
2008,03,09,12,48,10.00
2008,03,09,12,49,10.00
2008,03,09,12,50,10.10
2008,03,09,12,51,10.10
2008,03,09,12,52,10.10
2008,03,09,12,53,10.10
2008,03,09,12,54,10.10
2008,03,09,12,55,10.20
2008,03,09,12,56,10.20
2008,03,09,12,57,10.20
2008,03,09,12,58,10.30
2008,03,09,12,59,10.40
2008,03,09,13,00,10.40
2008,03,09,13,01,10.40
2008,03,09,13,02,10.40
2008,03,09,13,03,10.40
2008,03,09,13,04,10.40
2008,03,09,13,05,10.40
2008,03,09,13,06,10.40
2008,03,09,13,07,10.40
2008,03,09,13,08,10.40
2008,03,09,13,09,10.40
2008,03,09,13,10,10.40
2008,03,09,13,11,10.40
2008,03,09,13,12,10.40
2008,03,09,13,13,10.50
2008,03,09,13,14,10.50
2008,03,09,13,15,10.60
2008,03,09,13,16,10.60
2008,03,09,13,17,10.70
2008,03,09,13,18,10.70
2008,03,09,13,19,10.70
2008,03,09,13,20,10.70
2008,03,09,13,21,10.70
2008,03,09,13,22,10.70
2008,03,09,13,23,10.70
2008,03,09,13,24,10.70
2008,03,09,13,25,10.70
2008,03,09,13,26,10.70
2008,03,09,13,27,10.70
2008,03,09,13,28,10.70
2008,03,09,13,29,10.70
2008,03,09,13,30,10.70
2008,03,09,13,31,10.80
2008,03,09,13,32,10.80
2008,03,09,13,33,10.80
2008,03,09,13,34,10.80
2008,03,09,13,35,10.80
2008,03,09,13,36,10.80
2008,03,09,13,37,10.80
2008,03,09,13,38,10.90
2008,03,09,13,39,10.90
2008,03,09,13,40,10.90
2008,03,09,13,41,11.00
2008,03,09,13,42,11.00
2008,03,09,13,43,11.00
2008,03,09,13,44,11.00
2008,03,09,13,45,11.00
2008,03,09,13,46,11.00
2008,03,09,13,47,11.00
2008,03,09,13,48,11.10
2008,03,09,13,49,11.10
2008,03,09,13,50,11.10
2008,03,09,13,51,11.10
2008,03,09,13,52,11.10
2008,03,09,13,53,11.20
2008,03,09,13,54,11.20
2008,03,09,13,55,11.20
2008,03,09,13,56,11.20
2008,03,09,13,57,11.20
2008,03,09,13,58,11.30
2008,03,09,13,59,11.30
2008,03,09,14,00,11.30
2008,03,09,14,01,11.30
2008,03,09,14,02,11.30
2008,03,09,14,03,11.30
2008,03,09,14,04,11.30
2008,03,09,14,05,11.30
2008,03,09,14,06,11.30
2008,03,09,14,07,11.30
2008,03,09,14,08,11.30
2008,03,09,14,09,11.20
2008,03,09,14,10,11.20
2008,03,09,14,11,11.20
2008,03,09,14,12,11.20
2008,03,09,14,13,11.20
2008,03,09,14,14,11.10
2008,03,09,14,15,11.20
2008,03,09,14,16,11.20
2008,03,09,14,17,11.20
2008,03,09,14,18,11.10
2008,03,09,14,19,11.20
2008,03,09,14,20,11.10
2008,03,09,14,21,11.10
2008,03,09,14,22,11.10
2008,03,09,14,23,11.20
2008,03,09,14,24,11.20
2008,03,09,14,25,11.20
2008,03,09,14,26,11.20
2008,03,09,14,27,11.30
2008,03,09,14,28,11.30
2008,03,09,14,29,11.30
2008,03,09,14,30,11.30
2008,03,09,14,31,11.30
2008,03,09,14,32,11.30
2008,03,09,14,33,11.30
2008,03,09,14,34,11.30
2008,03,09,14,35,11.20
2008,03,09,14,36,11.20
2008,03,09,14,37,11.20
2008,03,09,14,38,11.20
2008,03,09,14,39,11.20
2008,03,09,14,40,11.20
2008,03,09,14,41,11.20
2008,03,09,14,42,11.20
2008,03,09,14,43,11.20
2008,03,09,14,44,11.20
2008,03,09,14,45,11.30
2008,03,09,14,46,11.30
2008,03,09,14,47,11.20
2008,03,09,14,48,11.20
2008,03,09,14,49,11.20
2008,03,09,14,50,11.20
2008,03,09,14,51,11.20
2008,03,09,14,52,11.10
2008,03,09,14,53,11.10
2008,03,09,14,54,11.10
2008,03,09,14,55,11.10
2008,03,09,14,56,11.10
2008,03,09,14,57,11.10
2008,03,09,14,58,11.10
2008,03,09,14,59,11.10
2008,03,09,15,00,11.10
2008,03,09,15,01,11.10
2008,03,09,15,02,11.10
2008,03,09,15,03,11.20
2008,03,09,15,04,11.20
2008,03,09,15,05,11.20
2008,03,09,15,06,11.20
2008,03,09,15,07,11.30
2008,03,09,15,08,11.30
2008,03,09,15,09,11.30
2008,03,09,15,10,11.40
2008,03,09,15,11,11.40
2008,03,09,15,12,11.30
2008,03,09,15,13,11.40
2008,03,09,15,14,11.40
2008,03,09,15,15,11.40
2008,03,09,15,16,11.40
2008,03,09,15,17,11.40
2008,03,09,15,18,11.40
2008,03,09,15,19,11.40
2008,03,09,15,20,11.50
2008,03,09,15,21,11.50
2008,03,09,15,22,11.50
2008,03,09,15,23,11.50
2008,03,09,15,24,11.50
2008,03,09,15,25,11.40
2008,03,09,15,26,11.40
2008,03,09,15,27,11.50
2008,03,09,15,28,11.50
2008,03,09,15,29,11.50
2008,03,09,15,30,11.50
2008,03,09,15,31,11.60
2008,03,09,15,32,11.60
2008,03,09,15,33,11.50
2008,03,09,15,34,11.50
2008,03,09,15,35,11.50
2008,03,09,15,36,11.50
2008,03,09,15,37,11.50
2008,03,09,15,38,11.40
2008,03,09,15,39,11.40
2008,03,09,15,40,11.40
2008,03,09,15,41,11.40
2008,03,09,15,42,11.40
2008,03,09,15,43,11.40
2008,03,09,15,44,11.40
2008,03,09,15,45,11.40
2008,03,09,15,46,11.30
2008,03,09,15,47,11.30
2008,03,09,15,48,11.30
2008,03,09,15,49,11.30
2008,03,09,15,50,11.30
2008,03,09,15,51,11.30
2008,03,09,15,52,11.30
2008,03,09,15,53,11.30
2008,03,09,15,54,11.30
2008,03,09,15,55,11.30
2008,03,09,15,56,11.30
2008,03,09,15,57,11.30
2008,03,09,15,58,11.30
2008,03,09,15,59,11.30
2008,03,09,16,00,11.30
2008,03,09,16,01,11.30
2008,03,09,16,02,11.40
2008,03,09,16,03,11.40
2008,03,09,16,04,11.30
2008,03,09,16,05,11.30
2008,03,09,16,06,11.40
2008,03,09,16,07,11.40
2008,03,09,16,08,11.40
2008,03,09,16,09,11.40
2008,03,09,16,10,11.50
2008,03,09,16,11,11.50
2008,03,09,16,12,11.50
2008,03,09,16,13,11.60
2008,03,09,16,14,11.60
2008,03,09,16,15,11.60
2008,03,09,16,16,11.60
2008,03,09,16,17,11.60
2008,03,09,16,18,11.60
2008,03,09,16,19,11.60
2008,03,09,16,20,11.50
2008,03,09,16,21,11.50
2008,03,09,16,22,11.50
2008,03,09,16,23,11.40
2008,03,09,16,24,11.40
2008,03,09,16,25,11.40
2008,03,09,16,26,11.40
2008,03,09,16,27,11.40
2008,03,09,16,28,11.40
2008,03,09,16,29,11.40
2008,03,09,16,30,11.40
2008,03,09,16,31,11.40
2008,03,09,16,32,11.40
2008,03,09,16,33,11.40
2008,03,09,16,34,11.40
2008,03,09,16,35,11.30
2008,03,09,16,36,11.30
2008,03,09,16,37,11.30
2008,03,09,16,38,11.30
2008,03,09,16,39,11.20
2008,03,09,16,40,11.10
2008,03,09,16,41,11.00
2008,03,09,16,42,10.80
2008,03,09,16,43,10.50
2008,03,09,16,44,10.30
2008,03,09,16,45,10.10
2008,03,09,16,46,9.90
2008,03,09,16,47,9.90
2008,03,09,16,48,9.80
2008,03,09,16,49,9.70
2008,03,09,16,50,9.70
2008,03,09,16,51,9.70
2008,03,09,16,52,9.70
2008,03,09,16,53,9.60
2008,03,09,16,54,9.60
2008,03,09,16,55,9.50
2008,03,09,16,56,9.50
2008,03,09,16,57,9.40
2008,03,09,16,58,9.40
2008,03,09,16,59,9.40
2008,03,09,17,00,9.40
2008,03,09,17,01,9.40
2008,03,09,17,02,9.50
2008,03,09,17,03,9.50
2008,03,09,17,04,9.50
2008,03,09,17,05,9.50
2008,03,09,17,06,9.50
2008,03,09,17,07,9.50
2008,03,09,17,08,9.50
2008,03,09,17,09,9.60
2008,03,09,17,10,9.50
2008,03,09,17,11,9.50
2008,03,09,17,12,9.50
2008,03,09,17,13,9.40
2008,03,09,17,14,9.40
2008,03,09,17,15,9.40
2008,03,09,17,16,9.40
2008,03,09,17,17,9.40
2008,03,09,17,18,9.40
2008,03,09,17,19,9.40
2008,03,09,17,20,9.40
2008,03,09,17,21,9.40
2008,03,09,17,22,9.30
2008,03,09,17,23,9.30
2008,03,09,17,24,9.30
2008,03,09,17,25,9.30
2008,03,09,17,26,9.40
2008,03,09,17,27,9.30
2008,03,09,17,28,9.40
2008,03,09,17,29,9.40
2008,03,09,17,30,9.40
2008,03,09,17,31,9.40
2008,03,09,17,32,9.40
2008,03,09,17,33,9.40
2008,03,09,17,34,9.40
2008,03,09,17,35,9.40
2008,03,09,17,36,9.40
2008,03,09,17,37,9.40
2008,03,09,17,38,9.40
2008,03,09,17,39,9.40
2008,03,09,17,40,9.40
2008,03,09,17,41,9.40
2008,03,09,17,42,9.40
2008,03,09,17,43,9.40
2008,03,09,17,44,9.50
2008,03,09,17,45,9.50
2008,03,09,17,46,9.50
2008,03,09,17,47,9.50
2008,03,09,17,48,9.50
2008,03,09,17,49,9.50
2008,03,09,17,50,9.50
2008,03,09,17,51,9.50
2008,03,09,17,52,9.50
2008,03,09,17,53,9.50
2008,03,09,17,54,9.50
2008,03,09,17,55,9.50
2008,03,09,17,56,9.50
2008,03,09,17,57,9.60
2008,03,09,17,58,9.60
2008,03,09,17,59,9.60
2008,03,09,18,00,9.60
2008,03,09,18,01,9.60
2008,03,09,18,02,9.60
2008,03,09,18,03,9.60
2008,03,09,18,04,9.60
2008,03,09,18,05,9.60
2008,03,09,18,06,9.60
2008,03,09,18,07,9.60
2008,03,09,18,08,9.60
2008,03,09,18,09,9.60
2008,03,09,18,10,9.60
2008,03,09,18,11,9.60
2008,03,09,18,12,9.60
2008,03,09,18,13,9.60
2008,03,09,18,14,9.60
2008,03,09,18,15,9.60
2008,03,09,18,16,9.70
2008,03,09,18,17,9.70
2008,03,09,18,18,9.70
2008,03,09,18,19,9.70
2008,03,09,18,20,9.60
2008,03,09,18,21,9.60
2008,03,09,18,22,9.60
2008,03,09,18,23,9.60
2008,03,09,18,24,9.60
2008,03,09,18,25,9.60
2008,03,09,18,26,9.60
2008,03,09,18,27,9.60
2008,03,09,18,28,9.60
2008,03,09,18,29,9.60
2008,03,09,18,30,9.50
2008,03,09,18,31,9.50
2008,03,09,18,32,9.50
2008,03,09,18,33,9.50
2008,03,09,18,34,9.50
2008,03,09,18,35,9.50
2008,03,09,18,36,9.40
2008,03,09,18,37,9.50
2008,03,09,18,38,9.50
2008,03,09,18,39,9.50
2008,03,09,18,40,9.40
2008,03,09,18,41,9.40
2008,03,09,18,42,9.40
2008,03,09,18,43,9.40
2008,03,09,18,44,9.40
2008,03,09,18,45,9.40
2008,03,09,18,46,9.40
2008,03,09,18,47,9.40
2008,03,09,18,48,9.40
2008,03,09,18,49,9.40
2008,03,09,18,50,9.40
2008,03,09,18,51,9.40
2008,03,09,18,52,9.40
2008,03,09,18,53,9.40
2008,03,09,18,54,9.40